STARLINK-36365, 67666

Orbit data source: Space-Track

STARLINK-36365, 67666 is a payload satellite owned by SpaceX/Seattle (US) in SSO that was launched on Mon, 02 Feb 2026 UTC via an FALCON 9 launch vehicle from the Air Force Western Test Range (AFWTR). Payload-class satellites include a variety of spacecraft equipped with specific instruments for various scientific and technological missions. These include communications satellites like Starlink; space stations such as the ISS; scientific satellites like the Hubble; Earth observation satellites from companies like Planet Labs, Umbra, and HawkEye 360; GPS; miniature CubeSats for education and research; and military/defense satellites.

Loading next visibility...
Identifier
67666, 2026-022U
Orbit
SSO
Country
Flag of USUS
Related business
Manufacturer
SpaceX/Seattle
Mission
Operational spacecraft
Bus & Motor
STARLINK V2MO, Unknown motor
Mass
575 kg wet, ~530 kg dry
Launch date (UTC)
2026-02-02 (2 months ago)
Launch vehicle
FALCON 9
Launch site
Air Force Western Test Range (AFWTR)
Object type
Payload
Rocket body
Debris
Shape & HBR
Unknown shape, 17.7 m
Radar Cross Section
RCS unknown

Expand to show TLE details & history
Last TLE update: 13 hours ago

TLE from 13 hours ago
0 STARLINK-36365
1 67666U 26022U   26095.07447881  .00025271  00000-0  78190-3 0  9999
2 67666  97.2852 129.0001 0001721  67.2353 292.9071 15.33468142  9619
Epoch: 2026-04-05T01:47Z
TLE epoch observation values (Epoch: 2026-04-05T01:47:14.969Z)
Latitude
-0.00005°
Longitude
-91.19739°
Altitude
468.128 km
Speed
7.632 km/s
True Right ascension
08h 36m 00s
True Declination
0° 00' 00"
Sunlit
Object was in full shadow at epoch
Visualization orbit readout
Latitude
Unknown
Longitude
Unknown
Altitude
Unknown
Speed
Unknown
Apparent Right ascension
Unknown
Apparent Declination
Unknown
Sunlit
N/A
Visualization observer readout
Local Sidereal Time
20:51:18
Azimuth
Unknown
Elevation
Unknown
Doppler factor
Unknown
Orbital elements
Apogee altitude
463.594 km
Perigee altitude
461.24 km
Semi-major axis
6,840.554 km
Eccentricity
0.00017
Inclination
97.2852°
RAAN
129.0001°
Arg. of periapsis
67.2353°
True anomaly
292.88893°
Mean anomaly
292.9071°
Eccentric anomaly
292.89802°
Mean motion
3.83624 °/min
Orbital period
93.84 mins
BSTAR
0.0007819
Loading maneuver chart data...
Computing Atmospheric mass density...
Loading historical data...
Loading historical data...
Loading historical data...
Loading historical data...
Loading historical data...
Loading historical data...
Loading historical data...

Documentation

Showing up to 5 results
|